Time,TemperatureF,DewpointF,PressureIn,WindDirection,WindDirectionDegrees,WindSpeedMPH,WindSpeedGustMPH,Humidity,HourlyPrecipIn,Conditions,Clouds,dailyrainin,SoftwareType,DateUTC
2013-04-29 00:00:00,51.9,49.6,30.00,NE,41,0.0,0.0,92,0.00,,,0.00,Wunderground v.1.15,2013-04-29 04:00:00,
2013-04-29 00:05:00,51.7,49.5,30.00,NE,41,0.0,0.0,92,0.00,,,0.00,Wunderground v.1.15,2013-04-29 04:05:00,
2013-04-29 00:10:00,51.6,49.6,30.01,NE,41,0.0,0.0,93,0.00,,,0.00,Wunderground v.1.15,2013-04-29 04:10:00,
2013-04-29 00:15:00,51.6,49.6,30.01,NE,41,0.0,0.0,93,0.00,,,0.00,Wunderground v.1.15,2013-04-29 04:15:00,
2013-04-29 00:20:00,51.6,49.6,30.01,NE,41,0.0,0.0,93,0.00,,,0.00,Wunderground v.1.15,2013-04-29 04:20:00,
2013-04-29 00:25:00,51.6,49.6,30.01,NE,41,0.0,0.0,93,0.00,,,0.00,Wunderground v.1.15,2013-04-29 04:25:00,
2013-04-29 00:30:00,51.6,49.9,30.00,NE,41,0.0,0.0,94,0.00,,,0.00,Wunderground v.1.15,2013-04-29 04:30:00,
2013-04-29 00:35:00,51.6,49.9,30.00,NE,41,0.0,0.0,94,0.00,,,0.00,Wunderground v.1.15,2013-04-29 04:35:00,
2013-04-29 00:40:00,51.6,49.6,30.00,NE,41,0.0,0.0,93,0.00,,,0.00,Wunderground v.1.15,2013-04-29 04:40:00,
2013-04-29 00:45:00,51.4,49.4,30.00,NE,41,0.0,0.0,93,0.00,,,0.00,Wunderground v.1.15,2013-04-29 04:45:00,
2013-04-29 00:50:00,51.4,49.7,30.00,NE,41,0.0,0.0,94,0.00,,,0.00,Wunderground v.1.15,2013-04-29 04:50:00,
2013-04-29 01:00:00,51.4,49.7,30.01,NE,41,0.0,0.0,94,0.00,,,0.00,Wunderground v.1.15,2013-04-29 05:00:00,
2013-04-29 01:10:00,51.6,49.9,30.00,NE,41,0.0,0.0,94,0.00,,,0.00,Wunderground v.1.15,2013-04-29 05:10:00,
2013-04-29 01:20:00,51.7,50.0,30.00,NE,41,0.0,0.0,94,0.00,,,0.00,Wunderground v.1.15,2013-04-29 05:20:00,
2013-04-29 01:25:00,51.7,50.0,30.00,NE,41,0.0,0.0,94,0.00,,,0.00,Wunderground v.1.15,2013-04-29 05:25:00,
2013-04-29 01:35:00,51.7,50.0,30.00,NE,41,0.0,0.0,94,0.00,,,0.00,Wunderground v.1.15,2013-04-29 05:35:00,
2013-04-29 01:40:00,51.7,50.0,30.00,NE,41,0.0,0.0,94,0.00,,,0.00,Wunderground v.1.15,2013-04-29 05:40:00,
2013-04-29 01:50:00,51.6,49.9,30.00,NE,41,0.0,0.0,94,0.00,,,0.00,Wunderground v.1.15,2013-04-29 05:50:00,
2013-04-29 02:00:00,51.6,50.2,30.00,NE,41,0.0,0.0,95,0.00,,,0.00,Wunderground v.1.15,2013-04-29 06:00:00,
2013-04-29 02:05:00,51.6,50.2,30.00,NE,41,0.0,0.0,95,0.00,,,0.00,Wunderground v.1.15,2013-04-29 06:05:00,
2013-04-29 02:10:00,51.6,50.2,29.99,NE,41,0.0,0.0,95,0.00,,,0.00,Wunderground v.1.15,2013-04-29 06:10:00,
2013-04-29 02:15:00,51.3,49.6,29.99,NE,41,0.0,0.0,94,0.00,,,0.00,Wunderground v.1.15,2013-04-29 06:15:00,
2013-04-29 02:20:00,51.0,49.3,29.99,NE,41,0.0,0.0,94,0.00,,,0.00,Wunderground v.1.15,2013-04-29 06:20:00,
2013-04-29 02:25:00,50.8,49.1,29.98,NE,41,0.0,0.0,94,0.00,,,0.00,Wunderground v.1.15,2013-04-29 06:25:00,
2013-04-29 02:30:00,50.5,49.1,29.98,NE,41,0.0,0.0,95,0.00,,,0.00,Wunderground v.1.15,2013-04-29 06:30:00,
2013-04-29 02:40:00,50.1,48.7,29.98,NE,41,0.0,0.0,95,0.00,,,0.00,Wunderground v.1.15,2013-04-29 06:40:00,
2013-04-29 02:50:00,49.9,48.5,29.98,NE,41,0.0,0.0,95,0.00,,,0.00,Wunderground v.1.15,2013-04-29 06:50:00,
2013-04-29 03:00:00,49.9,48.8,29.98,NE,41,0.0,0.0,96,0.00,,,0.00,Wunderground v.1.15,2013-04-29 07:00:00,
2013-04-29 03:10:00,49.9,48.8,29.97,NE,41,0.0,0.0,96,0.00,,,0.00,Wunderground v.1.15,2013-04-29 07:10:00,
2013-04-29 03:20:00,49.8,48.7,29.97,NE,41,0.0,0.0,96,0.00,,,0.00,Wunderground v.1.15,2013-04-29 07:20:00,
2013-04-29 03:30:00,49.6,48.5,29.97,NE,41,0.0,0.0,96,0.00,,,0.00,Wunderground v.1.15,2013-04-29 07:30:00,
2013-04-29 03:35:00,49.6,48.8,29.97,NE,41,0.0,0.0,97,0.00,,,0.00,Wunderground v.1.15,2013-04-29 07:35:00,
2013-04-29 03:40:00,49.5,48.4,29.97,NE,41,0.0,0.0,96,0.00,,,0.00,Wunderground v.1.15,2013-04-29 07:40:00,
2013-04-29 03:45:00,49.5,48.4,29.97,NE,41,0.0,0.0,96,0.00,,,0.00,Wunderground v.1.15,2013-04-29 07:45:00,
2013-04-29 03:50:00,49.4,48.6,29.97,NE,41,0.0,0.0,97,0.00,,,0.00,Wunderground v.1.15,2013-04-29 07:50:00,
2013-04-29 04:00:00,48.9,47.8,29.97,NE,41,0.0,0.0,96,0.00,,,0.00,Wunderground v.1.15,2013-04-29 08:00:00,
2013-04-29 04:10:00,48.6,47.8,29.97,NE,41,0.0,0.0,97,0.00,,,0.00,Wunderground v.1.15,2013-04-29 08:10:00,
2013-04-29 04:20:00,48.5,47.7,29.97,NE,41,0.0,0.0,97,0.00,,,0.00,Wunderground v.1.15,2013-04-29 08:20:00,
2013-04-29 04:30:00,48.6,47.8,29.97,NE,41,0.0,0.0,97,0.00,,,0.00,Wunderground v.1.15,2013-04-29 08:30:00,
2013-04-29 04:35:00,48.8,48.3,29.97,NE,41,0.0,0.0,98,0.00,,,0.00,Wunderground v.1.15,2013-04-29 08:35:00,
2013-04-29 04:45:00,49.4,48.9,29.97,NE,41,0.0,0.0,98,0.00,,,0.00,Wunderground v.1.15,2013-04-29 08:45:00,
2013-04-29 04:55:00,49.6,49.1,29.97,NE,41,0.0,0.0,98,0.00,,,0.00,Wunderground v.1.15,2013-04-29 08:55:00,
2013-04-29 05:00:00,49.6,49.1,29.98,NE,41,0.0,0.0,98,0.00,,,0.00,Wunderground v.1.15,2013-04-29 09:00:00,
2013-04-29 05:05:00,49.8,49.3,29.97,NE,41,0.0,0.0,98,0.00,,,0.00,Wunderground v.1.15,2013-04-29 09:05:00,
2013-04-29 05:15:00,50.1,49.6,29.98,NE,41,0.0,0.0,98,0.00,,,0.00,Wunderground v.1.15,2013-04-29 09:15:00,
2013-04-29 05:20:00,50.1,49.6,29.98,NE,41,0.0,0.0,98,0.00,,,0.00,Wunderground v.1.15,2013-04-29 09:20:00,
2013-04-29 05:30:00,50.2,49.7,29.98,NE,41,0.0,0.0,98,0.00,,,0.00,Wunderground v.1.15,2013-04-29 09:30:00,
2013-04-29 05:40:00,50.4,49.9,29.98,NE,41,0.0,0.0,98,0.00,,,0.00,Wunderground v.1.15,2013-04-29 09:40:00,
2013-04-29 05:50:00,50.5,49.7,29.98,NE,41,0.0,0.0,97,0.00,,,0.00,Wunderground v.1.15,2013-04-29 09:50:00,
2013-04-29 05:55:00,50.5,50.0,29.98,NE,41,0.0,0.0,98,0.00,,,0.00,Wunderground v.1.15,2013-04-29 09:55:00,
2013-04-29 06:00:00,50.5,49.7,29.98,NE,41,0.0,0.0,97,0.00,,,0.00,Wunderground v.1.15,2013-04-29 10:00:00,
2013-04-29 06:15:00,50.5,49.7,29.98,NE,41,0.0,0.0,97,0.00,,,0.00,Wunderground v.1.15,2013-04-29 10:15:00,
2013-04-29 06:20:00,50.7,49.9,29.98,NE,41,0.0,0.0,97,0.00,,,0.00,Wunderground v.1.15,2013-04-29 10:20:00,
2013-04-29 06:26:00,50.7,49.9,29.99,NE,41,0.0,0.0,97,0.00,,,0.00,Wunderground v.1.15,2013-04-29 10:26:00,
2013-04-29 06:35:00,50.5,49.7,29.99,NE,41,0.0,0.0,97,0.00,,,0.00,Wunderground v.1.15,2013-04-29 10:35:00,
2013-04-29 06:40:00,50.5,49.7,29.99,NE,41,0.0,0.0,97,0.00,,,0.00,Wunderground v.1.15,2013-04-29 10:40:00,
2013-04-29 06:50:00,50.7,49.9,29.99,NE,41,0.0,0.0,97,0.00,,,0.00,Wunderground v.1.15,2013-04-29 10:50:00,
2013-04-29 06:55:00,50.7,49.9,30.00,NE,41,0.0,0.0,97,0.00,,,0.00,Wunderground v.1.15,2013-04-29 10:55:00,
2013-04-29 07:00:00,50.7,49.9,30.00,NE,41,0.0,0.0,97,0.00,,,0.00,Wunderground v.1.15,2013-04-29 11:00:00,
2013-04-29 07:10:00,50.8,50.0,30.00,NE,41,0.0,0.0,97,0.00,,,0.00,Wunderground v.1.15,2013-04-29 11:10:00,
2013-04-29 07:20:00,51.0,50.2,30.01,NE,41,0.0,0.0,97,0.00,,,0.00,Wunderground v.1.15,2013-04-29 11:20:00,
2013-04-29 07:30:00,51.0,50.2,30.01,NE,41,0.0,0.0,97,0.00,,,0.00,Wunderground v.1.15,2013-04-29 11:30:00,
2013-04-29 07:40:00,51.1,50.3,30.01,NE,41,0.0,0.0,97,0.00,,,0.00,Wunderground v.1.15,2013-04-29 11:40:00,
2013-04-29 07:50:00,51.6,50.8,30.01,NE,41,0.0,0.0,97,0.00,,,0.00,Wunderground v.1.15,2013-04-29 11:50:00,
2013-04-29 08:00:00,52.2,51.1,30.01,NE,41,0.0,0.0,96,0.00,,,0.00,Wunderground v.1.15,2013-04-29 12:00:00,
2013-04-29 08:05:00,52.3,50.9,30.01,NE,41,0.0,0.0,95,0.00,,,0.00,Wunderground v.1.15,2013-04-29 12:05:00,
2013-04-29 08:10:00,52.3,50.9,30.01,NE,41,0.0,0.0,95,0.00,,,0.00,Wunderground v.1.15,2013-04-29 12:10:00,
2013-04-29 08:20:00,52.6,51.2,30.02,NE,41,0.0,0.0,95,0.00,,,0.00,Wunderground v.1.15,2013-04-29 12:20:00,
2013-04-29 08:30:00,52.9,51.5,30.01,NE,41,0.0,0.0,95,0.00,,,0.00,Wunderground v.1.15,2013-04-29 12:30:00,
2013-04-29 08:40:00,53.2,51.8,30.02,NE,41,0.0,0.0,95,0.00,,,0.00,Wunderground v.1.15,2013-04-29 12:40:00,
2013-04-29 08:45:00,53.3,51.6,30.02,NE,41,0.0,0.0,94,0.00,,,0.00,Wunderground v.1.15,2013-04-29 12:45:00,
2013-04-29 08:55:00,53.5,51.8,30.02,NE,41,0.0,0.0,94,0.00,,,0.00,Wunderground v.1.15,2013-04-29 12:55:00,
2013-04-29 09:00:00,53.6,51.6,30.02,NE,41,0.0,0.0,93,0.00,,,0.00,Wunderground v.1.15,2013-04-29 13:00:00,
2013-04-29 09:10:00,53.8,51.8,30.02,NE,41,0.0,0.0,93,0.00,,,0.00,Wunderground v.1.15,2013-04-29 13:10:00,
2013-04-29 09:15:00,54.1,52.1,30.02,NE,41,0.0,0.0,93,0.00,,,0.00,Wunderground v.1.15,2013-04-29 13:15:00,
2013-04-29 09:25:00,54.4,52.1,30.02,NE,41,0.0,0.0,92,0.00,,,0.00,Wunderground v.1.15,2013-04-29 13:25:00,
2013-04-29 09:35:00,55.0,52.4,30.02,NE,41,0.0,0.0,91,0.00,,,0.00,Wunderground v.1.15,2013-04-29 13:35:00,
2013-04-29 09:40:00,55.3,52.4,30.02,NE,41,0.0,0.0,90,0.00,,,0.00,Wunderground v.1.15,2013-04-29 13:40:00,
2013-04-29 09:50:00,55.7,52.2,30.02,NE,41,0.0,0.0,88,0.00,,,0.00,Wunderground v.1.15,2013-04-29 13:50:00,
2013-04-29 10:00:00,56.3,52.5,30.02,NE,41,0.0,0.0,87,0.00,,,0.00,Wunderground v.1.15,2013-04-29 14:00:00,
2013-04-29 10:05:00,56.6,52.5,30.02,NE,41,0.0,0.0,86,0.00,,,0.00,Wunderground v.1.15,2013-04-29 14:05:00,
2013-04-29 10:10:00,56.9,52.4,30.01,NE,41,0.0,0.0,85,0.00,,,0.00,Wunderground v.1.15,2013-04-29 14:10:00,
2013-04-29 10:15:00,57.2,52.7,30.01,NE,41,0.0,0.0,85,0.00,,,0.00,Wunderground v.1.15,2013-04-29 14:15:00,
2013-04-29 10:20:00,57.5,53.0,30.01,NE,41,0.0,0.0,85,0.00,,,0.00,Wunderground v.1.15,2013-04-29 14:20:00,
2013-04-29 10:30:00,58.1,53.6,30.02,NE,41,0.0,0.0,85,0.00,,,0.00,Wunderground v.1.15,2013-04-29 14:30:00,
2013-04-29 10:40:00,58.6,53.5,30.01,NE,41,0.0,0.0,83,0.00,,,0.00,Wunderground v.1.15,2013-04-29 14:40:00,
2013-04-29 10:50:00,59.0,53.5,30.02,SW,231,1.0,3.0,82,0.00,,,0.00,Wunderground v.1.15,2013-04-29 14:50:00,
2013-04-29 10:55:00,59.3,53.5,30.02,SW,215,2.0,3.0,81,0.00,,,0.00,Wunderground v.1.15,2013-04-29 14:55:00,
2013-04-29 11:05:00,59.5,53.0,30.01,SSW,193,1.0,1.0,79,0.00,,,0.00,Wunderground v.1.15,2013-04-29 15:05:00,
2013-04-29 11:10:00,59.9,53.7,30.01,SSW,209,1.0,1.0,80,0.00,,,0.00,Wunderground v.1.15,2013-04-29 15:10:00,
2013-04-29 11:15:00,60.1,53.9,30.02,SSW,192,1.0,1.0,80,0.00,,,0.00,Wunderground v.1.15,2013-04-29 15:15:00,
2013-04-29 11:20:00,60.2,53.3,30.01,SW,234,1.0,1.0,78,0.00,,,0.00,Wunderground v.1.15,2013-04-29 15:20:00,
2013-04-29 11:30:00,60.4,53.5,30.02,SSW,203,2.0,5.0,78,0.00,,,0.00,Wunderground v.1.15,2013-04-29 15:30:00,
2013-04-29 11:40:00,60.5,53.6,30.01,SSW,202,5.0,5.0,78,0.00,,,0.00,Wunderground v.1.15,2013-04-29 15:40:00,
2013-04-29 11:50:00,61.8,54.2,30.01,WSW,255,4.0,6.0,76,0.00,,,0.00,Wunderground v.1.15,2013-04-29 15:50:00,
2013-04-29 12:01:00,61.5,53.5,30.01,SW,236,5.0,5.0,75,0.00,,,0.00,Wunderground v.1.15,2013-04-29 16:01:00,
2013-04-29 12:10:00,60.7,52.7,30.02,South,178,4.0,5.0,75,0.00,,,0.00,Wunderground v.1.15,2013-04-29 16:10:00,
2013-04-29 12:15:00,60.5,52.5,30.01,SSW,212,3.0,3.0,75,0.00,,,0.00,Wunderground v.1.15,2013-04-29 16:15:00,
2013-04-29 12:20:00,60.7,53.1,30.01,SW,232,4.0,4.0,76,0.00,,,0.00,Wunderground v.1.15,2013-04-29 16:20:00,
2013-04-29 12:25:00,60.7,53.1,30.01,SW,229,4.0,4.0,76,0.00,,,0.00,Wunderground v.1.15,2013-04-29 16:25:00,
2013-04-29 12:30:00,60.4,52.8,30.01,SW,215,4.0,6.0,76,0.00,,,0.00,Wunderground v.1.15,2013-04-29 16:30:00,
2013-04-29 12:35:00,60.1,52.9,30.01,SSW,209,5.0,5.0,77,0.00,,,0.00,Wunderground v.1.15,2013-04-29 16:35:00,
2013-04-29 12:45:00,60.9,53.3,30.01,SSW,209,5.0,6.0,76,0.00,,,0.00,Wunderground v.1.15,2013-04-29 16:45:00,
2013-04-29 12:50:00,61.0,53.4,30.01,SSW,211,5.0,7.0,76,0.00,,,0.00,Wunderground v.1.15,2013-04-29 16:50:00,
2013-04-29 13:00:00,60.2,53.3,30.00,SSW,209,5.0,5.0,78,0.00,,,0.00,Wunderground v.1.15,2013-04-29 17:00:00,
2013-04-29 13:05:00,61.5,54.9,30.00,South,189,3.0,5.0,79,0.00,,,0.00,Wunderground v.1.15,2013-04-29 17:05:00,
2013-04-29 13:10:00,62.6,54.2,30.00,SSW,209,3.0,8.0,74,0.00,,,0.00,Wunderground v.1.15,2013-04-29 17:10:00,
2013-04-29 13:20:00,62.3,53.9,30.00,SW,235,6.0,8.0,74,0.00,,,0.00,Wunderground v.1.15,2013-04-29 17:20:00,
2013-04-29 13:25:00,62.3,53.2,30.00,SSW,201,7.0,8.0,72,0.00,,,0.00,Wunderground v.1.15,2013-04-29 17:25:00,
2013-04-29 13:30:00,62.9,54.1,30.00,SSW,201,7.0,8.0,73,0.00,,,0.00,Wunderground v.1.15,2013-04-29 17:30:00,
2013-04-29 13:40:00,63.1,53.9,30.00,WSW,252,8.0,12.0,72,0.00,,,0.00,Wunderground v.1.15,2013-04-29 17:40:00,
2013-04-29 13:45:00,62.7,53.5,30.00,West,262,9.0,12.0,72,0.00,,,0.00,Wunderground v.1.15,2013-04-29 17:45:00,
2013-04-29 13:50:00,62.9,53.4,30.00,WSW,253,8.0,8.0,71,0.00,,,0.00,Wunderground v.1.15,2013-04-29 17:50:00,
2013-04-29 14:00:00,62.7,52.4,30.00,SW,230,8.0,11.0,69,0.00,,,0.00,Wunderground v.1.15,2013-04-29 18:00:00,
2013-04-29 14:05:00,62.9,53.0,30.00,SW,221,9.0,11.0,70,0.00,,,0.00,Wunderground v.1.15,2013-04-29 18:05:00,
2013-04-29 14:10:00,62.9,52.6,29.99,SSW,213,8.0,8.0,69,0.00,,,0.00,Wunderground v.1.15,2013-04-29 18:10:00,
2013-04-29 14:20:00,63.9,53.9,29.99,SW,226,7.0,7.0,70,0.00,,,0.00,Wunderground v.1.15,2013-04-29 18:20:00,
2013-04-29 14:30:00,63.7,53.7,29.99,SSW,193,3.0,5.0,70,0.00,,,0.00,Wunderground v.1.15,2013-04-29 18:30:00,
2013-04-29 14:35:00,63.1,52.8,29.99,SW,234,4.0,7.0,69,0.00,,,0.00,Wunderground v.1.15,2013-04-29 18:35:00,
2013-04-29 14:45:00,62.9,53.0,29.99,West,261,6.0,7.0,70,0.00,,,0.00,Wunderground v.1.15,2013-04-29 18:45:00,
2013-04-29 14:55:00,63.7,53.7,29.99,WSW,240,4.0,9.0,70,0.00,,,0.00,Wunderground v.1.15,2013-04-29 18:55:00,
2013-04-29 15:05:00,64.0,53.2,29.98,SW,223,1.0,3.0,68,0.00,,,0.00,Wunderground v.1.15,2013-04-29 19:05:00,
2013-04-29 15:10:00,64.2,53.4,29.98,SW,221,2.0,3.0,68,0.00,,,0.00,Wunderground v.1.15,2013-04-29 19:10:00,
2013-04-29 15:20:00,63.9,53.1,29.98,SW,214,3.0,3.0,68,0.00,,,0.00,Wunderground v.1.15,2013-04-29 19:20:00,
2013-04-29 15:30:00,63.9,53.5,29.97,SW,234,2.0,4.0,69,0.00,,,0.00,Wunderground v.1.15,2013-04-29 19:30:00,
2013-04-29 15:40:00,64.3,53.1,29.97,South,191,2.0,2.0,67,0.00,,,0.00,Wunderground v.1.15,2013-04-29 19:40:00,
2013-04-29 15:50:00,64.7,52.7,29.96,SSW,208,2.0,2.0,65,0.00,,,0.00,Wunderground v.1.15,2013-04-29 19:50:00,
2013-04-29 16:00:00,64.7,54.3,29.96,SW,215,3.0,6.0,69,0.00,,,0.00,Wunderground v.1.15,2013-04-29 20:00:00,
2013-04-29 16:10:00,64.7,53.9,29.96,SW,221,1.0,1.0,68,0.00,,,0.00,Wunderground v.1.15,2013-04-29 20:10:00,
2013-04-29 16:20:00,64.8,53.2,29.95,South,175,1.0,1.0,66,0.00,,,0.00,Wunderground v.1.15,2013-04-29 20:20:00,
2013-04-29 16:25:00,65.2,54.0,29.95,SW,221,2.0,2.0,67,0.00,,,0.00,Wunderground v.1.15,2013-04-29 20:25:00,
2013-04-29 16:31:00,65.2,53.1,29.95,SSW,211,2.0,2.0,65,0.00,,,0.00,Wunderground v.1.15,2013-04-29 20:31:00,
2013-04-29 16:40:00,65.6,53.1,29.94,SW,215,1.0,1.0,64,0.00,,,0.00,Wunderground v.1.15,2013-04-29 20:40:00,
2013-04-29 16:45:00,66.0,53.9,29.94,SW,223,1.0,1.0,65,0.00,,,0.00,Wunderground v.1.15,2013-04-29 20:45:00,
2013-04-29 16:55:00,65.6,53.5,29.94,South,186,1.0,5.0,65,0.00,,,0.00,Wunderground v.1.15,2013-04-29 20:55:00,
2013-04-29 17:00:00,65.3,52.4,29.94,SW,220,2.0,2.0,63,0.00,,,0.00,Wunderground v.1.15,2013-04-29 21:00:00,
2013-04-29 17:10:00,65.3,52.8,29.94,SW,220,1.0,1.0,64,0.00,,,0.00,Wunderground v.1.15,2013-04-29 21:10:00,
2013-04-29 17:20:00,65.3,51.9,29.94,WSW,240,1.0,1.0,62,0.00,,,0.00,Wunderground v.1.15,2013-04-29 21:20:00,
2013-04-29 17:30:00,65.5,52.6,29.94,SSW,198,1.0,1.0,63,0.00,,,0.00,Wunderground v.1.15,2013-04-29 21:30:00,
2013-04-29 17:40:00,66.3,53.8,29.94,WSW,251,0.0,0.0,64,0.00,,,0.00,Wunderground v.1.15,2013-04-29 21:40:00,
2013-04-29 17:45:00,66.1,52.7,29.94,West,272,0.0,0.0,62,0.00,,,0.00,Wunderground v.1.15,2013-04-29 21:45:00,
2013-04-29 17:55:00,66.8,52.9,29.94,SW,233,0.0,2.0,61,0.00,,,0.00,Wunderground v.1.15,2013-04-29 21:55:00,
2013-04-29 18:05:00,67.6,54.6,29.94,SW,233,0.0,0.0,63,0.00,,,0.00,Wunderground v.1.15,2013-04-29 22:05:00,
2013-04-29 18:10:00,67.8,52.9,29.94,West,261,0.0,1.0,59,0.00,,,0.00,Wunderground v.1.15,2013-04-29 22:10:00,
2013-04-29 18:20:00,66.4,53.0,29.94,South,188,1.0,2.0,62,0.00,,,0.00,Wunderground v.1.15,2013-04-29 22:20:00,
2013-04-29 18:30:00,66.4,53.4,29.94,West,262,1.0,1.0,63,0.00,,,0.00,Wunderground v.1.15,2013-04-29 22:30:00,
2013-04-29 18:40:00,66.3,52.9,29.94,WNW,299,0.0,0.0,62,0.00,,,0.00,Wunderground v.1.15,2013-04-29 22:40:00,
2013-04-29 18:50:00,66.0,53.0,29.94,NW,306,1.0,1.0,63,0.00,,,0.00,Wunderground v.1.15,2013-04-29 22:50:00,
2013-04-29 19:00:00,66.3,53.3,29.94,NW,304,0.0,0.0,63,0.00,,,0.00,Wunderground v.1.15,2013-04-29 23:00:00,
2013-04-29 19:10:00,66.1,53.1,29.94,NW,304,0.0,0.0,63,0.00,,,0.00,Wunderground v.1.15,2013-04-29 23:10:00,
2013-04-29 19:20:00,65.8,53.3,29.94,NW,304,0.0,0.0,64,0.00,,,0.00,Wunderground v.1.15,2013-04-29 23:20:00,
2013-04-29 19:30:00,65.6,52.7,29.95,NW,304,0.0,0.0,63,0.00,,,0.00,Wunderground v.1.15,2013-04-29 23:30:00,
2013-04-29 19:40:00,64.8,53.2,29.94,NW,304,0.0,0.0,66,0.00,,,0.00,Wunderground v.1.15,2013-04-29 23:40:00,
2013-04-29 19:50:00,64.0,52.8,29.94,NW,304,0.0,0.0,67,0.00,,,0.00,Wunderground v.1.15,2013-04-29 23:50:00,
2013-04-29 19:55:00,63.5,52.7,29.94,NW,304,0.0,0.0,68,0.00,,,0.00,Wunderground v.1.15,2013-04-29 23:55:00,
2013-04-29 20:05:00,62.4,52.5,29.95,NW,304,0.0,0.0,70,0.00,,,0.00,Wunderground v.1.15,2013-04-30 00:05:00,
2013-04-29 20:15:00,60.7,52.0,29.95,NW,304,0.0,0.0,73,0.00,,,0.00,Wunderground v.1.15,2013-04-30 00:15:00,
2013-04-29 20:20:00,59.9,52.0,29.95,NW,304,0.0,0.0,75,0.00,,,0.00,Wunderground v.1.15,2013-04-30 00:20:00,
2013-04-29 20:30:00,58.6,51.4,29.95,NW,304,0.0,0.0,77,0.00,,,0.00,Wunderground v.1.15,2013-04-30 00:30:00,
2013-04-29 20:40:00,57.2,51.1,29.96,NW,304,0.0,0.0,80,0.00,,,0.00,Wunderground v.1.15,2013-04-30 00:40:00,
2013-04-29 20:45:00,56.6,51.2,29.96,NW,304,0.0,0.0,82,0.00,,,0.00,Wunderground v.1.15,2013-04-30 00:45:00,
2013-04-29 20:50:00,56.0,50.9,29.96,NW,304,0.0,0.0,83,0.00,,,0.00,Wunderground v.1.15,2013-04-30 00:50:00,
2013-04-29 21:00:00,55.1,50.7,29.96,NW,304,0.0,0.0,85,0.00,,,0.00,Wunderground v.1.15,2013-04-30 01:00:00,
2013-04-29 21:05:00,54.8,50.7,29.97,NW,304,0.0,0.0,86,0.00,,,0.00,Wunderground v.1.15,2013-04-30 01:05:00,
2013-04-29 21:10:00,54.5,50.7,29.97,NW,304,0.0,0.0,87,0.00,,,0.00,Wunderground v.1.15,2013-04-30 01:10:00,
2013-04-29 21:20:00,53.9,50.7,29.97,NW,304,0.0,0.0,89,0.00,,,0.00,Wunderground v.1.15,2013-04-30 01:20:00,
2013-04-29 21:30:00,53.2,50.0,29.97,NW,304,0.0,0.0,89,0.00,,,0.00,Wunderground v.1.15,2013-04-30 01:30:00,
2013-04-29 21:40:00,52.8,49.9,29.98,NW,304,0.0,0.0,90,0.00,,,0.00,Wunderground v.1.15,2013-04-30 01:40:00,
2013-04-29 21:50:00,52.5,49.7,29.98,NW,304,0.0,0.0,90,0.00,,,0.00,Wunderground v.1.15,2013-04-30 01:50:00,
2013-04-29 21:55:00,52.2,49.4,29.98,NW,304,0.0,0.0,90,0.00,,,0.00,Wunderground v.1.15,2013-04-30 01:55:00,
2013-04-29 22:00:00,51.9,49.4,29.99,NW,304,0.0,0.0,91,0.00,,,0.00,Wunderground v.1.15,2013-04-30 02:00:00,
2013-04-29 22:05:00,51.6,49.1,29.99,NW,304,0.0,0.0,91,0.00,,,0.00,Wunderground v.1.15,2013-04-30 02:05:00,
2013-04-29 22:10:00,51.3,49.1,29.98,NW,304,0.0,0.0,92,0.00,,,0.00,Wunderground v.1.15,2013-04-30 02:10:00,
2013-04-29 22:20:00,51.1,48.9,29.99,NW,304,0.0,0.0,92,0.00,,,0.00,Wunderground v.1.15,2013-04-30 02:20:00,
2013-04-29 22:30:00,50.8,48.8,29.99,NW,304,0.0,0.0,93,0.00,,,0.00,Wunderground v.1.15,2013-04-30 02:30:00,
2013-04-29 22:40:00,50.5,48.6,29.99,NW,304,0.0,0.0,93,0.00,,,0.00,Wunderground v.1.15,2013-04-30 02:40:00,
2013-04-29 22:50:00,50.7,49.0,29.99,NW,304,0.0,0.0,94,0.00,,,0.00,Wunderground v.1.15,2013-04-30 02:50:00,
2013-04-29 23:00:00,51.0,49.6,29.99,NW,304,0.0,0.0,95,0.00,,,0.00,Wunderground v.1.15,2013-04-30 03:00:00,
2013-04-29 23:10:00,51.0,49.3,29.99,NW,304,0.0,0.0,94,0.00,,,0.00,Wunderground v.1.15,2013-04-30 03:10:00,
2013-04-29 23:20:00,50.5,48.8,29.99,NW,304,0.0,0.0,94,0.00,,,0.00,Wunderground v.1.15,2013-04-30 03:20:00,
2013-04-29 23:25:00,50.2,48.5,29.99,NW,304,0.0,0.0,94,0.00,,,0.00,Wunderground v.1.15,2013-04-30 03:25:00,
2013-04-29 23:36:00,50.1,48.7,29.99,NW,304,0.0,0.0,95,0.00,,,0.00,Wunderground v.1.15,2013-04-30 03:36:00,
2013-04-29 23:45:00,49.9,48.2,29.99,NW,304,0.0,0.0,94,0.00,,,0.00,Wunderground v.1.15,2013-04-30 03:45:00,
2013-04-29 23:55:00,49.4,47.7,29.99,NW,304,0.0,0.0,94,0.00,,,0.00,Wunderground v.1.15,2013-04-30 03:55:00,